Regional Weather Roundup
Issued by NWS

Home | Current Version | Previous Version | Text Only | Print | Product List | Glossary On
Versions: 1 2 3 4 5 6 7 8 9 10 11 12 13 14 15 16 17 18 19 20 21 22 23 24 25 26 27
000
ASUS45 KSLC 210810
RWRUT

UTAH REGIONAL WEATHER ROUNDUP
NATIONAL WEATHER SERVICE SALT LAKE CITY UT
200 AM MDT MON APR 21 2014

UTZ001>011-023>025-210900-

NORTHERN UTAH

CITY           SKY/WX    TMP DP  RH WIND       PRES   REMARKS
HILL AFB       NOT AVBL
LOGAN          CLEAR     41  25  53 S5        30.26R
OGDEN          CLEAR     46  23  40 NW3       30.21R
PROVO AIRPORT  CLEAR     45  32  61 CALM      30.22S
SALT LAKE CITY CLEAR     45  30  55 W6        30.21R
VERNAL         MOCLDY    47  35  63 N6        30.20R
WENDOVER       CLEAR     54  16  22 W5        30.22S
HEBER CITY     CLEAR     37  27  65 CALM      30.26S
WEST JORDAN    CLEAR     50  27  40 CALM      30.22R

$$

UTZ012>022-026-027-210900-

SOUTHERN UTAH

CITY           SKY/WX    TMP DP  RH WIND       PRES   REMARKS
BRYCE CANYON   PTCLDY    37  31  78 W8        30.32R WCI  31
CEDAR CITY     PTCLDY    51  33  50 SE6       30.20R
MILFORD        PTCLDY    48  25  40 S3        30.19R
MOAB/CYNLANDS  PTCLDY    54  36  50 CALM      30.14S
PRICE          CLEAR     45  25  45 N7        30.22S
ST GEORGE      SUNNY     64  28  25 SE6       30.07R
KANAB            N/A     45  32  61 NE6       30.22R

$$

REGIONAL REPORTS     COLORADO/ARIZONA

CITY           SKY/WX    TMP DP  RH WIND       PRES   REMARKS
CRAIG, CO      CLEAR     36  33  89 SE3       30.25R
GRAND JUNCTION CLEAR     48  40  73 CALM      30.19R
RIFLE          CLEAR     40  35  83 CALM      30.25S
MONTROSE       CLEAR     46  35  65 SE7       30.24S
CORTEZ         PTCLDY    41  30  65 NE6       30.21S
PAGE, AZ       CLEAR     62  36  37 CALM      30.12S
GRAND CANYON   PTCLDY    40  32  73 E3        30.28R
KINGMAN        CLEAR     65  33  30 SE3       30.11R
FLAGSTAFF      CLEAR     38  32  79 CALM      30.30S

$$

REGIONAL REPORTS    NEVADA/IDAHO/WYOMING

CITY           SKY/WX    TMP DP  RH WIND       PRES   REMARKS
LAS VEGAS, NV  CLEAR     76  29  17 S12       29.96S
ELY            CLEAR     39  20  46 S7        30.25R WCI  34
ELKO           CLEAR     36  20  52 CALM      30.23S
POCATELLO, ID  CLEAR     41  16  36 S8        30.25R
BURLEY         PTCLDY    37  24  59 SW9       30.22S WCI  30
EVANSTON, WY   CLEAR     40  19  43 SE6       30.29S
ROCK SPRINGS   CLEAR     42   9  25 W12       30.26R

$$



USA.gov is the U.S. government's official web portal to all federal, state and local government web resources and services.